Location: Central Falls
(41.8900°N, 71.3929°W)
Time: 03:37:28
(UTC+00:00)

Vanguard 2 Rocket - Pass Details

Date: 07 December 2023
Orbit: 555 x 3309 km, 32.9° (Epoch: 01 March)

Event Time Altitude Azimuth Distance (km) Brightness Sun altitude
Rises 01:20:29 0° 281° (W) 7,290 12.3 -45.0°
Reaches altitude 10° 01:26:39 10° 272° (W) 6,151 11.6 -46.1°
Maximum altitude 01:40:42 27° 224° (SW) 4,152 10.3 -48.6°
Enters shadow 01:45:56 23° 195° (SSW) 4,054 10.1 -49.6°
Drops below altitude 10° 01:51:11 10° 172° (S) 4,508 - -50.5°
Sets 01:54:53 0° 160° (SSE) 5,110 - -51.2°
